Weather History for Arlington, WA

Change the Weather History Date:

Wednesday, January 23, 2013

  Actual Average Record
Temperature  
Mean Temperature 37 °F -  
Max Temperature 41 °F 38 °F 57 °F (2005)
Min Temperature 33 °F 29 °F 19 °F (2008)
Degree Days  
Heating Degree Days 28    
Moisture  
Dew Point 35 °F    
Average Humidity 91    
Maximum Humidity 100    
Minimum Humidity 81    
Precipitation  
Precipitation 0.05 in - - ()
Sea Level Pressure  
Sea Level Pressure 29.95 in    
Wind  
Wind Speed 1 mph (SSE)    
Max Wind Speed 12 mph    
Max Gust Speed -    
Visibility 9 miles    
Events      
Averages and records for this station are not official NWS values.
T = Trace of Precipitation, MM = Missing Value Source: NWS Daily Summary

Daily Weather History Graph

Daily Weather History Graph

Search for Another Location

Airport:

Trip Planner

Search our weather history database for the weather conditions in past years. The results will help you decide how hot, cold, wet, or windy it might be!

Date:

Astronomy

Jan. 23, 2013 Rise Set
Actual Time 7:46 AM PST 4:54 PM PST
Civil Twilight 7:12 AM PST 5:29 PM PST
Nautical Twilight 6:34 AM PST 6:07 PM PST
Astronomical Twilight 5:57 AM PST 6:44 PM PST
Moon 2:05 PM PST (1/23) 5:06 AM PST (1/23)
Length of Visible Light 10h 16m
Length of Day
9h 07m
Waxing Gibbous, 90% of the Moon is Illuminated
Jan 23
Waxing Gibbous
Jan 26
Full
Feb 3
Last Quarter
Feb 9
New
Feb 17
First Quarter

Hourly Weather History & Observations

Time (PST) Temp. Windchill Dew Point Humidity Pressure Visibility Wind Dir Wind Speed Gust Speed Precip Events Conditions
12:15 AM 33.8 °F - 32.0 °F 93% 29.95 in 8.0 mi Calm Calm - N/A   Overcast
12:35 AM 33.8 °F - 32.0 °F 93% 29.94 in 7.0 mi Calm Calm - N/A   Overcast
12:55 AM 33.8 °F - 33.8 °F 100% 29.95 in 9.0 mi Calm Calm - N/A   Overcast
1:15 AM 33.8 °F - 32.0 °F 93% 29.96 in 8.0 mi Calm Calm - N/A   Overcast
1:35 AM 33.8 °F - 30.2 °F 87% 29.96 in 6.0 mi Calm Calm - N/A   Overcast
1:55 AM 33.8 °F 30.8 °F 30.2 °F 87% 29.94 in 7.0 mi ENE 3.5 mph - N/A   Overcast
2:15 AM 33.8 °F 27.0 °F 32.0 °F 93% 29.91 in 7.0 mi ENE 8.1 mph - N/A   Overcast
2:35 AM 35.6 °F - 33.8 °F 93% 29.95 in 10.0 mi Calm Calm - N/A   Overcast
2:55 AM 35.6 °F - 32.0 °F 87% 29.93 in 10.0 mi Calm Calm - N/A   Overcast
3:15 AM 35.6 °F - 32.0 °F 87% 29.96 in 10.0 mi Calm Calm - N/A   Mostly Cloudy
3:35 AM 35.6 °F - 32.0 °F 87% 29.95 in 10.0 mi Calm Calm - N/A   Mostly Cloudy
4:15 AM 35.6 °F 29.9 °F 33.8 °F 93% 29.95 in 10.0 mi NE 6.9 mph - N/A   Overcast
4:35 AM 35.6 °F - 33.8 °F 93% 29.97 in 10.0 mi Calm Calm - N/A   Overcast
4:55 AM 35.6 °F - 33.8 °F 93% 29.96 in 10.0 mi Calm Calm - N/A   Overcast
5:15 AM 35.6 °F - 33.8 °F 93% 29.94 in 10.0 mi Calm Calm - N/A   Overcast
5:35 AM 35.6 °F - 32.0 °F 87% 29.93 in 10.0 mi Calm Calm - N/A   Overcast
5:55 AM 35.6 °F - 33.8 °F 93% 29.92 in 10.0 mi Calm Calm - N/A   Overcast
6:15 AM 35.6 °F - 33.8 °F 93% 29.91 in 10.0 mi Calm Calm - N/A   Overcast
6:35 AM 35.6 °F - 33.8 °F 93% 29.91 in 10.0 mi Calm Calm - N/A   Overcast
6:55 AM 35.6 °F - 33.8 °F 93% 29.91 in 10.0 mi Calm Calm - N/A   Overcast
7:15 AM 35.6 °F - 33.8 °F 93% 29.90 in 10.0 mi Calm Calm - N/A   Overcast
7:35 AM 35.6 °F - 33.8 °F 93% 29.89 in 10.0 mi Calm Calm - N/A   Overcast
7:55 AM 35.6 °F - 33.8 °F 93% 29.89 in 10.0 mi Calm Calm - N/A   Overcast
8:15 AM 35.6 °F - 33.8 °F 93% 29.89 in 10.0 mi Calm Calm - N/A   Overcast
8:35 AM 35.6 °F - 33.8 °F 93% 29.89 in 10.0 mi Calm Calm - N/A   Overcast
8:55 AM 35.6 °F - 33.8 °F 93% 29.90 in 10.0 mi Calm Calm - N/A   Overcast
9:15 AM 37.4 °F - 33.8 °F 87% 29.89 in 10.0 mi Calm Calm - N/A   Overcast
9:35 AM 37.4 °F - 33.8 °F 87% 29.90 in 10.0 mi Calm Calm - N/A   Overcast
9:55 AM 37.4 °F - 33.8 °F 87% 29.90 in 10.0 mi Calm Calm - N/A   Overcast
10:15 AM 39.2 °F - 33.8 °F 81% 29.90 in 10.0 mi Calm Calm - N/A   Overcast
10:35 AM 39.2 °F - 33.8 °F 81% 29.90 in 10.0 mi Calm Calm - N/A   Overcast
10:55 AM 39.2 °F - 35.6 °F 87% 29.91 in 10.0 mi Calm Calm - N/A   Overcast
11:15 AM 39.2 °F - 35.6 °F 87% 29.90 in 10.0 mi Calm Calm - N/A   Overcast
11:35 AM 39.2 °F - 35.6 °F 87% 29.90 in 7.0 mi Calm Calm - N/A   Overcast
11:55 AM 37.4 °F - 35.6 °F 93% 29.89 in 8.0 mi Calm Calm - N/A   Overcast
12:15 PM 37.4 °F - 35.6 °F 93% 29.88 in 7.0 mi Calm Calm - N/A   Overcast
12:35 PM 39.2 °F - 35.6 °F 87% 29.87 in 10.0 mi Calm Calm - N/A   Overcast
12:55 PM 39.2 °F 35.9 °F 35.6 °F 87% 29.86 in 9.0 mi NW 4.6 mph - N/A   Overcast
1:15 PM 39.2 °F 34.2 °F 37.4 °F 93% 29.86 in 9.0 mi West 6.9 mph - N/A   Overcast
1:35 PM 39.2 °F - 37.4 °F 93% 29.86 in 8.0 mi Calm Calm - N/A   Overcast
1:55 PM 39.2 °F - 37.4 °F 93% 29.86 in 7.0 mi Calm Calm - N/A   Overcast
2:15 PM 39.2 °F - 37.4 °F 93% 29.86 in 5.0 mi Calm Calm - N/A   Overcast
2:35 PM 39.2 °F 37.0 °F 37.4 °F 93% 29.88 in 4.0 mi South 3.5 mph - N/A   Overcast
2:55 PM 39.2 °F 34.2 °F 37.4 °F 93% 29.88 in 5.0 mi SSE 6.9 mph - 0.01 in   Overcast
3:15 PM 39.2 °F 33.6 °F 37.4 °F 93% 29.88 in 7.0 mi South 8.1 mph - N/A   Overcast
3:35 PM 39.2 °F - 37.4 °F 93% 29.89 in 7.0 mi Calm Calm - N/A   Overcast
3:55 PM 39.2 °F - 37.4 °F 93% 29.91 in 9.0 mi Calm Calm - N/A   Overcast
4:15 PM 39.2 °F 37.0 °F 37.4 °F 93% 29.92 in 9.0 mi SSW 3.5 mph - N/A   Overcast
4:35 PM 39.2 °F - 37.4 °F 93% 29.92 in 9.0 mi Calm Calm - 0.01 in   Overcast
4:55 PM 39.2 °F 35.9 °F 37.4 °F 93% 29.94 in 8.0 mi SSW 4.6 mph - 0.02 in   Overcast
5:15 PM 39.2 °F - 37.4 °F 93% 29.95 in 7.0 mi Calm Calm - N/A   Overcast
5:35 PM 39.2 °F - 37.4 °F 93% 29.96 in 10.0 mi Calm Calm - 0.01 in   Overcast
5:55 PM 39.2 °F - 37.4 °F 93% 29.97 in 7.0 mi Calm Calm - 0.01 in   Overcast
6:15 PM 39.2 °F - 37.4 °F 93% 29.97 in 7.0 mi Calm Calm - N/A   Overcast
6:35 PM 39.2 °F 37.0 °F 37.4 °F 93% 29.97 in 5.0 mi SSE 3.5 mph - N/A   Overcast
6:55 PM 39.2 °F 34.2 °F 37.4 °F 93% 29.98 in 10.0 mi SSE 6.9 mph - N/A   Overcast
7:15 PM 39.2 °F 32.0 °F 37.4 °F 93% 29.98 in 10.0 mi SE 11.5 mph - N/A   Overcast
7:35 PM 39.2 °F 34.2 °F 37.4 °F 93% 30.00 in 10.0 mi SSE 6.9 mph - N/A   Overcast
8:15 PM 41.0 °F 35.2 °F 37.4 °F 87% 30.03 in 10.0 mi SSE 9.2 mph - N/A   Overcast
8:35 PM 41.0 °F 35.2 °F 37.4 °F 87% 30.04 in 10.0 mi SSE 9.2 mph - N/A   Overcast
8:55 PM 39.2 °F 34.2 °F 37.4 °F 93% 30.06 in 10.0 mi South 6.9 mph - N/A   Overcast
9:15 PM 41.0 °F 37.1 °F 37.4 °F 87% 30.06 in 10.0 mi South 5.8 mph - N/A   Overcast
9:55 PM 39.2 °F 34.2 °F 37.4 °F 93% 30.09 in 10.0 mi SSE 6.9 mph - N/A   Overcast
10:15 PM 39.2 °F 35.0 °F 37.4 °F 93% 30.10 in 10.0 mi SSE 5.8 mph - N/A   Overcast
10:35 PM 39.2 °F 33.0 °F 37.4 °F 93% 30.11 in 10.0 mi SE 9.2 mph - N/A   Overcast
10:55 PM 39.2 °F 34.2 °F 37.4 °F 93% 30.12 in 10.0 mi SE 6.9 mph - N/A   Overcast
11:15 PM 39.2 °F 37.0 °F 37.4 °F 93% 30.13 in 8.0 mi SSE 3.5 mph - N/A   Overcast
11:35 PM 39.2 °F - 37.4 °F 93% 30.14 in 4.0 mi Calm Calm - 0.01 in   Overcast
11:55 PM 39.2 °F - 37.4 °F 93% 30.15 in 7.0 mi Calm Calm - 0.01 in   Overcast